SCP
0 0 0 0 0 0 0 0 0 0 0 0 0 0 0 0 0 0 0 0 0 0 0 0 0 0 0 0 0 0 0 0 0 0 0 0 0 0
0 0 0 0 0 0 0 0 0 0 0 0 0 0 0 0 0 0 0 0 0 0 0 0 0 0 0 0 0 0 0 0 0 0 0 0 0 0
0 0 0 0 0 0 0 0 0 0 0 0 0 0 0 0 0 0 0 0 0 0 0 0 0 0 0 0 0 0 0 0 0 0 0 0 0 0
0 0 0 0 0 0 0 0 0 0 0 0 0 0 0 0 0 0 0 0 0 0 0 0 0 0 0 0 0 0 0 0 0 0 0 0 0 0
0 0 0 0 0 0 0 0 0 0 0 0 0 0 0 0 0 0 0 0 0 0 0 0 0 0 0 0 0 0 0 0 0 0 0 0 0 0
0 0 0 0 0 0 0 0 0 0 0 0 0 0 0 0 0 0 0 0 0 0 0 0 0 0 0 0 0 0 0 0 0 0 0 0 0 0
0 0 0 0 0 0 0 0 0 0 0 0 0 0 0 0 0 0 0 0 0 0 0 0 0 0 0 0 0 0 0 0 0 0 0 0 0 0
0 0 0 0 0 0 0 0 0 0 0 0 0 0 0 0 0 0 0 0 0 0 0 0 0 0 0 0 0 0 0 0 0 0 0 0 0 0
0 0 0 0 0 0 0 0 0 0 0 0 0 0 0 0 0 0 0 0 0 0 0 0 0 0 0 0 0 0 0 0 0 0 0 0 0 0
0 0 0 0 0 0 0 0 0 0 0 0 0 0 0 0 0 0 0 0 0 0 0 0 0 0 0 0 0 0 0 0 0 0 0 0 0 0
0 0 0 0 0 0 0 0 0 0 0 0 0 0 0 0 0 0 0 0 0 0 0 0 0 0 0 0 0 0 0 0 0 0 0 0 0 0
0 0 0 0 0 0 0 0 0 0 0 0 0 0 0 0 0 0 0 0 0 0 0 0 0 0 0 0 0 0 0 0 0 0 0 0 0 0
0 0 0 0 0 0 0 0 0 0 0 0 0 0 0 0 0 0 0 0 0 0 0 0 0 0 0 0 0 0 0 0 0 0 0 0 0 0
0 0 0 0 0 0 0 0 0 0 0 0 0 0 0 0 0 0 0 0 0 0 0 0 0 0 0 0 0 0 0 0 0 0 0 0 0 0
0 0 0 0 0 0 0 0 0 0 0 0 0 0 0 0 0 0 0 0 0 0 0 0 0 0 0 0 0 0 0 0 0 0 0 0 0 0
0 0 0 0 0 0 0 0 0 0 0 0 0 0 0 0 0 0 0 0 0 0 0 0 0 0 0 0 0 0 0 0 0 0 0 0 0 0
0 0 0 0 0 0 0 0 0 0 0 0 0 0 0 0 0 0 0 0 0 0 0 0 0 0 0 0 0 0 0 0 0 0 0 0 0 0
0 0 0 0 0 0 0 0 0 0 0 0 0 0 0 0 0 0 0 0 0 0 0 0 0 0 0 0 0 0 0 0 0 0 0 0 0 0
0 0 0 0 0 0 0 0 0 0 0 0 0 0 0 0 0 0 0 0 0 0 0 0 0 0 0 0 0 0 0 0 0 0 0 0 0 0
0 0 0 0 0 0 0 0 0 0 0 0 0 0 0 0 0 0 0 0 0 0 0 0 0 0 0 0 0 0 0 0 0 0 0 0 0 0
0 0 0 0 0 0 0 0 0 0 0 0 0 0 0 0 0 0 0 0 0 0 0 0 0 0 0 0 0 0 0 0 0 0 0 0 0 0
0 0 0 0 0 0 0 0 0 0 0 0 0 0 0 0 0 0 0 0 0 0 0 0 0 0 0 0 0 0 0 0 0 0 0 0 0 0
0 0 0 0 0 0 0 0 0 0 0 0 0 0 0 0 0 0 0 0 0 0 0 0 0 0 0 0 0 0 0 0 0 0 0 0 0 0
Wind_Speed_500mb
32 34 33 33 34 33 31 31 29 16 18 17 23 31 32 27 28 23 18 18 17 17 17 18 18 18 18 18 18 19 22 25 28 29 32 31 29 27
36 37 35 34 35 33 33 33 33 33 24 29 26 28 20 24 24 19 15 14 13 12 12 11 10 10 9 11 13 15 18 19 21 22 24 25 25 26
37 37 36 35 36 33 33 33 34 36 42 40 32 26 18 20 21 18 13 11 10 9 7 6 7 9 10 12 12 13 14 16 18 19 21 23 25 26
34 35 35 35 36 33 31 30 29 29 33 34 25 24 19 21 20 19 17 12 12 11 13 12 12 13 14 14 16 16 19 20 20 22 23 26 29 31
34 35 34 34 35 32 28 27 26 26 29 29 23 16 16 19 20 22 22 18 18 18 18 20 18 19 20 22 22 22 24 26 25 27 27 28 32 33
34 34 35 35 34 31 27 23 22 23 23 27 26 21 21 18 21 22 23 21 20 23 22 25 26 26 25 26 28 28 27 28 28 28 30 31 34 37
32 34 34 33 32 33 34 28 28 28 29 30 33 30 25 22 22 24 24 24 22 24 21 23 25 31 30 29 30 31 31 32 32 31 32 34 38 41
33 33 33 34 35 36 36 33 34 37 37 37 38 40 34 28 27 30 32 30 32 23 23 29 29 30 30 29 33 33 32 34 35 35 34 39 42 43
34 36 36 35 35 37 38 41 43 43 42 40 45 46 43 34 33 38 40 38 40 37 39 45 34 29 25 34 32 32 36 38 34 34 37 45 44 45
38 37 37 37 39 41 44 47 48 47 47 49 52 51 47 43 42 42 45 50 48 44 40 48 45 40 34 26 30 38 35 31 30 35 45 47 46 50
46 45 44 46 44 44 50 53 52 53 50 53 54 53 53 49 48 49 52 53 53 50 45 43 45 45 39 39 30 25 27 21 41 43 45 44 49 50
48 48 48 50 49 47 49 54 60 58 54 55 56 57 56 55 50 53 54 56 54 54 44 39 31 34 32 38 28 19 41 41 45 41 43 48 48 51
45 45 44 41 39 39 41 49 57 56 58 60 63 64 64 63 60 56 57 58 59 63 55 51 50 50 47 44 47 47 49 48 45 49 48 45 43 46
36 35 35 36 38 40 43 47 47 49 54 58 60 61 59 59 59 57 56 58 59 61 52 53 54 53 51 53 56 51 51 55 53 54 50 46 48 55
27 30 29 27 27 31 34 36 38 42 47 53 57 59 54 50 45 44 41 45 48 43 41 47 52 53 55 59 63 57 54 55 55 50 43 53 53 51
32 35 36 35 35 33 31 33 38 43 49 53 55 53 47 40 39 36 37 35 40 39 40 40 43 49 56 55 54 54 50 51 51 49 52 49 48 47
22 19 21 23 28 31 35 33 37 33 31 34 43 43 39 39 38 36 37 39 46 45 42 45 52 48 48 48 51 52 50 47 42 42 46 47 45 42
28 24 23 23 22 21 24 24 25 29 32 33 36 40 42 41 39 39 39 35 41 46 52 45 36 37 43 48 49 50 43 39 35 39 42 43 41 29
34 29 31 30 29 29 27 27 23 24 32 37 38 39 41 41 42 43 42 42 44 46 39 33 37 40 44 52 50 45 44 40 35 35 34 39 43 38
40 38 39 38 37 37 35 35 33 32 30 31 34 36 39 41 43 45 43 40 40 43 47 47 45 45 47 51 50 45 43 43 35 37 39 43 44 43
48 48 47 46 46 45 44 43 42 40 39 37 35 35 36 37 37 39 40 43 47 49 51 51 44 43 46 48 49 48 42 39 38 44 46 40 42 46
60 59 54 54 55 55 53 51 50 49 46 45 42 40 38 38 38 38 37 38 40 42 43 41 40 42 43 45 43 42 45 47 44 38 34 37 41 26
66 66 65 62 61 61 61 61 59 56 52 51 50 47 43 43 38 39 38 37 37 35 34 30 29 29 28 31 36 39 40 39 40 42 41 38 37 37
Wind_Direction_500mb
256 254 251 248 245 243 240 238 239 243 223 237 230 228 228 231 265 268 267 270 267 268 269 269 270 273 280 282 282 280 281 286 289 294 300 305 309 314
254 253 250 249 250 249 248 244 237 238 237 222 236 228 211 249 256 257 258 259 266 273 275 276 275 277 283 295 298 292 293 294 296 301 304 306 312 317
248 247 248 249 250 249 250 245 241 237 245 240 245 220 257 247 250 253 246 250 269 281 267 279 294 290 291 299 303 304 306 306 306 308 311 316 317 320
248 246 245 248 250 247 244 244 244 243 246 259 255 241 230 232 237 246 256 250 266 280 275 285 296 300 289 292 300 304 305 306 308 312 316 318 323 323
249 247 247 246 249 245 241 241 243 242 244 252 257 237 224 243 245 245 246 249 261 268 278 272 284 291 286 283 289 293 297 302 305 309 313 317 319 322
252 250 248 245 242 235 236 240 243 246 247 252 254 258 257 250 252 247 239 250 253 270 274 270 267 285 284 281 282 287 294 295 295 299 304 310 313 316
251 251 249 245 236 231 240 245 251 253 254 258 263 267 266 266 270 268 262 260 263 270 274 255 263 284 281 280 280 283 288 294 295 295 299 307 311 313
252 250 247 240 231 234 245 249 251 254 257 261 267 269 273 277 278 281 281 283 286 280 270 252 278 279 280 277 283 280 284 293 290 290 295 305 308 309
256 255 250 240 238 243 247 252 253 256 260 263 266 270 277 281 279 278 281 280 279 282 286 282 287 285 277 283 279 280 289 288 285 287 296 304 305 305
257 256 251 246 247 250 253 253 254 256 258 263 268 274 275 277 275 275 275 276 278 279 285 284 291 291 293 271 277 284 282 278 282 293 302 303 304 307
257 255 253 252 251 255 259 258 260 259 260 262 264 266 270 272 274 271 268 273 277 278 282 282 283 293 289 293 291 275 270 270 297 298 301 301 307 306
260 261 258 257 256 256 258 263 264 261 264 262 262 263 266 267 266 266 271 270 273 278 285 271 280 286 294 292 281 264 290 293 295 296 300 303 304 305
262 263 263 264 262 258 258 265 271 276 273 272 269 266 264 262 261 260 262 265 268 267 272 271 277 281 280 276 281 287 292 298 298 298 302 304 302 302
265 268 266 262 258 255 252 252 256 264 270 275 277 275 272 268 268 267 263 263 265 267 271 270 271 272 276 280 282 287 292 294 296 298 299 298 302 305
266 271 272 269 263 257 253 253 254 255 262 269 274 278 282 285 282 275 268 258 261 263 261 259 265 270 270 274 278 284 289 289 292 293 290 299 303 303
253 258 265 265 261 258 255 257 258 261 258 258 264 273 278 275 275 277 271 264 264 266 265 265 271 273 274 274 277 280 282 282 288 289 292 297 300 304
276 275 271 273 273 262 250 257 267 264 264 261 258 266 273 274 272 275 272 266 258 265 268 274 282 273 270 275 275 278 284 284 286 282 286 293 297 300
283 284 282 281 281 275 268 268 261 256 260 262 260 260 262 266 264 264 261 261 258 259 268 275 274 274 273 272 276 282 282 284 285 278 284 288 296 295
284 284 283 280 280 280 280 279 272 260 257 259 263 265 267 268 268 266 264 263 264 268 270 267 269 271 275 277 286 286 286 290 286 283 284 288 294 299
283 282 281 279 278 277 275 275 275 273 266 262 261 262 264 266 267 267 265 262 262 261 264 266 266 267 270 276 284 285 287 288 285 285 285 289 291 294
278 277 278 276 274 272 271 270 270 269 269 268 266 265 264 264 264 265 266 265 263 262 263 266 269 267 264 267 270 275 279 280 275 281 285 286 292 297
281 279 277 274 271 270 269 268 266 265 266 267 267 266 265 264 264 264 266 268 268 269 269 269 267 265 263 258 264 268 270 274 278 275 274 282 287 277
278 277 276 274 270 268 266 265 265 264 262 263 264 265 265 264 265 263 261 262 265 267 269 268 258 260 261 262 267 269 270 273 273 274 277 277 274 277
Wind_Speed_850mb
32 34 33 33 34 33 31 31 29 16 18 17 23 31 32 27 28 23 18 18 17 17 17 18 18 18 18 18 18 19 22 25 28 29 32 31 29 27
36 37 35 34 35 33 33 33 33 33 24 29 26 28 20 24 24 19 15 14 13 12 12 11 10 10 9 11 13 15 18 19 21 22 24 25 25 26
37 37 36 35 36 33 33 33 34 36 42 40 32 26 18 20 21 18 13 11 10 9 7 6 7 9 10 12 12 13 14 16 18 19 21 23 25 26
34 35 35 35 36 33 31 30 29 29 33 34 25 24 19 21 20 19 17 12 12 11 13 12 12 13 14 14 16 16 19 20 20 22 23 26 29 31
34 35 34 34 35 32 28 27 26 26 29 29 23 16 16 19 20 22 22 18 18 18 18 20 18 19 20 22 22 22 24 26 25 27 27 28 32 33
34 34 35 35 34 31 27 23 22 23 23 27 26 21 21 18 21 22 23 21 20 23 22 25 26 26 25 26 28 28 27 28 28 28 30 31 34 37
32 34 34 33 32 33 34 28 28 28 29 30 33 30 25 22 22 24 24 24 22 24 21 23 25 31 30 29 30 31 31 32 32 31 32 34 38 41
33 33 33 34 35 36 36 33 34 37 37 37 38 40 34 28 27 30 32 30 32 23 23 29 29 30 30 29 33 33 32 34 35 35 34 39 42 43
34 36 36 35 35 37 38 41 43 43 42 40 45 46 43 34 33 38 40 38 40 37 39 45 34 29 25 34 32 32 36 38 34 34 37 45 44 45
38 37 37 37 39 41 44 47 48 47 47 49 52 51 47 43 42 42 45 50 48 44 40 48 45 40 34 26 30 38 35 31 30 35 45 47 46 50
46 45 44 46 44 44 50 53 52 53 50 53 54 53 53 49 48 49 52 53 53 50 45 43 45 45 39 39 30 25 27 21 41 43 45 44 49 50
48 48 48 50 49 47 49 54 60 58 54 55 56 57 56 55 50 53 54 56 54 54 44 39 31 34 32 38 28 19 41 41 45 41 43 48 48 51
45 45 44 41 39 39 41 49 57 56 58 60 63 64 64 63 60 56 57 58 59 63 55 51 50 50 47 44 47 47 49 48 45 49 48 45 43 46
36 35 35 36 38 40 43 47 47 49 54 58 60 61 59 59 59 57 56 58 59 61 52 53 54 53 51 53 56 51 51 55 53 54 50 46 48 55
27 30 29 27 27 31 34 36 38 42 47 53 57 59 54 50 45 44 41 45 48 43 41 47 52 53 55 59 63 57 54 55 55 50 43 53 53 51
32 35 36 35 35 33 31 33 38 43 49 53 55 53 47 40 39 36 37 35 40 39 40 40 43 49 56 55 54 54 50 51 51 49 52 49 48 47
22 19 21 23 28 31 35 33 37 33 31 34 43 43 39 39 38 36 37 39 46 45 42 45 52 48 48 48 51 52 50 47 42 42 46 47 45 42
28 24 23 23 22 21 24 24 25 29 32 33 36 40 42 41 39 39 39 35 41 46 52 45 36 37 43 48 49 50 43 39 35 39 42 43 41 29
34 29 31 30 29 29 27 27 23 24 32 37 38 39 41 41 42 43 42 42 44 46 39 33 37 40 44 52 50 45 44 40 35 35 34 39 43 38
40 38 39 38 37 37 35 35 33 32 30 31 34 36 39 41 43 45 43 40 40 43 47 47 45 45 47 51 50 45 43 43 35 37 39 43 44 43
48 48 47 46 46 45 44 43 42 40 39 37 35 35 36 37 37 39 40 43 47 49 51 51 44 43 46 48 49 48 42 39 38 44 46 40 42 46
60 59 54 54 55 55 53 51 50 49 46 45 42 40 38 38 38 38 37 38 40 42 43 41 40 42 43 45 43 42 45 47 44 38 34 37 41 26
66 66 65 62 61 61 61 61 59 56 52 51 50 47 43 43 38 39 38 37 37 35 34 30 29 29 28 31 36 39 40 39 40 42 41 38 37 37
Wind_Direction_850mb
256 254 251 248 245 243 240 238 239 243 223 237 230 228 228 231 265 268 267 270 267 268 269 269 270 273 280 282 282 280 281 286 289 294 300 305 309 314
254 253 250 249 250 249 248 244 237 238 237 222 236 228 211 249 256 257 258 259 266 273 275 276 275 277 283 295 298 292 293 294 296 301 304 306 312 317
248 247 248 249 250 249 250 245 241 237 245 240 245 220 257 247 250 253 246 250 269 281 267 279 294 290 291 299 303 304 306 306 306 308 311 316 317 320
248 246 245 248 250 247 244 244 244 243 246 259 255 241 230 232 237 246 256 250 266 280 275 285 296 300 289 292 300 304 305 306 308 312 316 318 323 323
249 247 247 246 249 245 241 241 243 242 244 252 257 237 224 243 245 245 246 249 261 268 278 272 284 291 286 283 289 293 297 302 305 309 313 317 319 322
252 250 248 245 242 235 236 240 243 246 247 252 254 258 257 250 252 247 239 250 253 270 274 270 267 285 284 281 282 287 294 295 295 299 304 310 313 316
251 251 249 245 236 231 240 245 251 253 254 258 263 267 266 266 270 268 262 260 263 270 274 255 263 284 281 280 280 283 288 294 295 295 299 307 311 313
252 250 247 240 231 234 245 249 251 254 257 261 267 269 273 277 278 281 281 283 286 280 270 252 278 279 280 277 283 280 284 293 290 290 295 305 308 309
256 255 250 240 238 243 247 252 253 256 260 263 266 270 277 281 279 278 281 280 279 282 286 282 287 285 277 283 279 280 289 288 285 287 296 304 305 305
257 256 251 246 247 250 253 253 254 256 258 263 268 274 275 277 275 275 275 276 278 279 285 284 291 291 293 271 277 284 282 278 282 293 302 303 304 307
257 255 253 252 251 255 259 258 260 259 260 262 264 266 270 272 274 271 268 273 277 278 282 282 283 293 289 293 291 275 270 270 297 298 301 301 307 306
260 261 258 257 256 256 258 263 264 261 264 262 262 263 266 267 266 266 271 270 273 278 285 271 280 286 294 292 281 264 290 293 295 296 300 303 304 305
262 263 263 264 262 258 258 265 271 276 273 272 269 266 264 262 261 260 262 265 268 267 272 271 277 281 280 276 281 287 292 298 298 298 302 304 302 302
265 268 266 262 258 255 252 252 256 264 270 275 277 275 272 268 268 267 263 263 265 267 271 270 271 272 276 280 282 287 292 294 296 298 299 298 302 305
266 271 272 269 263 257 253 253 254 255 262 269 274 278 282 285 282 275 268 258 261 263 261 259 265 270 270 274 278 284 289 289 292 293 290 299 303 303
253 258 265 265 261 258 255 257 258 261 258 258 264 273 278 275 275 277 271 264 264 266 265 265 271 273 274 274 277 280 282 282 288 289 292 297 300 304
276 275 271 273 273 262 250 257 267 264 264 261 258 266 273 274 272 275 272 266 258 265 268 274 282 273 270 275 275 278 284 284 286 282 286 293 297 300
283 284 282 281 281 275 268 268 261 256 260 262 260 260 262 266 264 264 261 261 258 259 268 275 274 274 273 272 276 282 282 284 285 278 284 288 296 295
284 284 283 280 280 280 280 279 272 260 257 259 263 265 267 268 268 266 264 263 264 268 270 267 269 271 275 277 286 286 286 290 286 283 284 288 294 299
283 282 281 279 278 277 275 275 275 273 266 262 261 262 264 266 267 267 265 262 262 261 264 266 266 267 270 276 284 285 287 288 285 285 285 289 291 294
278 277 278 276 274 272 271 270 270 269 269 268 266 265 264 264 264 265 266 265 263 262 263 266 269 267 264 267 270 275 279 280 275 281 285 286 292 297
281 279 277 274 271 270 269 268 266 265 266 267 267 266 265 264 264 264 266 268 268 269 269 269 267 265 263 258 264 268 270 274 278 275 274 282 287 277
278 277 276 274 270 268 266 265 265 264 262 263 264 265 265 264 265 263 261 262 265 267 269 268 258 260 261 262 267 269 270 273 273 274 277 277 274 277